Other Public Products
Issued by NWS Charleston, SC

Home | Current Version | Previous Version | Text Only | Print | Product List | Glossary On
Versions: 1 2 3 4 5 6 7 8 9 10 11 12 13 14 15 16 17 18 19 20 21 22 23 24 25 26 27 28 29 30 31 32 33 34 35 36 37 38 39 40 41 42 43 44 45 46 47 48 49 50
172
FPUS82 KCHS 201628
OPUCHS

TEST...KCHS/KSAV Gateway Observations...TEST
National Weather Service Charleston SC
1200 PM EDT SUN AUG 20 2017

NOTE: "fair" indicates few or no clouds below 12,000 feet with no
significant weather and/or obstructions to visibility.

SCZ050-WAZ558-NCZ071-TXZ119-213-PAZ071-DCZ001-FLZ074-172-MI076-
NYZ176-178-MAZ016-IL014-TNZ027-NJZ106-GAZ044-MD014-201700-

...Gateway Observations for Charleston International...

CITY           SKY/WX    TMP DP  RH WIND       PRES   REMARKS
Chas Airport   CLOUDY    88  75  65 CALM      30.07S HX  97
Seattle        PTSUNNY   61  49  64 NE8       30.18R
Charlotte      MOSUNNY   89  70  53 VRB5      30.13S HX  94
Dallas DFW     MOSUNNY   90  68  48 S8        30.02R HX  94
Dallas Love    MOSUNNY   90  67  46 SW5       30.03R HX  93
Philladelphia  MOSUNNY   80  59  48 N6        30.11R
Wash National  SUNNY     83  63  50 NE7       30.14S
Baltimore      SUNNY     80  62  54 VRB3      30.13S
Miami          LGT RAIN  82  75  79 CALM      30.05R
Detroit        MOSUNNY   80  62  54 SW10      30.12R
Newark         PTSUNNY   80  59  48 NW13      30.06S
Laguardia      PTSUNNY   79  59  50 NW14      30.05R
J F K          MOSUNNY   81  59  47 W15G23    30.06S
Boston Logan   MOSUNNY   82  61  48 NW10G18   29.95R
Ft. Lauderdale CLOUDY    82  81  96 N5        30.04F HX  95
Chicago O`Hare PTSUNNY   82  64  54 S6        30.05S
Chicago Midway PTSUNNY   82  65  56 S3        30.05S
Houston Bush   MOSUNNY   90  74  59 VRB3      30.02F HX  99
Houston Hobby  MOSUNNY   92  72  51 SW5       30.02S HX  99
Nashville      MOSUNNY   88  71  57 CALM      30.12R HX  94
Atlanta        MOSUNNY   88  66  48 VRB3      30.13R HX  90

$$

GAZ044-118-TXZ119-213-NCZ071-DCZ001-MDZ014-506-PAZ021-071-NJZ106-
NYZ176-178-MAZ106-OHZ011-021-055-MIZ076-KYZ091-ILZ014-INZ047-
MNZ060-ONZ431-201700-

...Gateway Observations for Savannah International...

CITY           SKY/WX    TMP DP  RH WIND       PRES   REMARKS
Savannah Arpt  MOSUNNY   91  76  61 SE8       30.07S HX 103
Atlanta        MOSUNNY   88  66  48 VRB3      30.13R HX  90
Charlotte      MOSUNNY   89  70  53 VRB5      30.13S HX  94
Dallas DFW     MOSUNNY   90  68  48 S8        30.02R HX  94
Houston Bush   MOSUNNY   90  74  59 VRB3      30.02F HX  99
Wash National  SUNNY     83  63  50 NE7       30.14S
Wash Dulles    MOSUNNY   79  60  52 N7        30.15S
Baltimore      SUNNY     80  62  54 VRB3      30.13S
Philadelphia   MOSUNNY   80  59  48 N6        30.11R
Newark         PTSUNNY   80  59  48 NW13      30.06S
Laguardia      PTSUNNY   79  59  50 NW14      30.05R
J F K          MOSUNNY   81  59  47 W15G23    30.06S
Boston         MOSUNNY   82  61  48 NW10G18   29.95R
Pittsburg      MOSUNNY   74  61  63 SE7       30.17S
Akron          SUNNY     79  58  48 MISG      30.15S
Cleveland      SUNNY     83  58  42 SW6       30.13F
Cincinnati     MOSUNNY   84  70  62 SW8       30.11R
Columbus       PTSUNNY   78  70  75 SE3       30.11S
Detroit        MOSUNNY   80  62  54 SW10      30.12R
Chicago O`Hare PTSUNNY   82  64  54 S6        30.05S
Minneapolis    MOSUNNY   78  65  63 SW9       29.91S
Indianapolis   MOSUNNY   84  66  54 CALM      30.08R
Toronto Canada MOSUNNY   79  63  57 W8        30.06F

$$




USA.gov is the U.S. government's official web portal to all federal, state and local government web resources and services.